Location: Ar Ranvel
(48.3000°N, 4.8833°W)
Time: 07:30:51
(UTC+00:00)

COSMOS 2251 DEB - Visible Passes

Search period start: 29 January 2022 00:00
Search period end: 08 February 2022 00:00
Orbit: 757 x 1084 km, 74.1° (Epoch: 26 January)

Date Brightness Start Highest point End Pass type
(mag) Time Alt. Az. Time Alt. Az. Time Alt. Az.
29 Jan ? 17:46:19 10° N 17:51:41 24° NE 17:57:07 10° E visible
29 Jan ? 19:31:10 10° NNW 19:38:00 90° W 19:44:55 10° SSE visible
29 Jan ? 21:18:00 10° NW 21:22:35 19° W 21:27:11 10° SW visible
30 Jan ? 17:55:06 10° N 18:00:59 30° NE 18:06:58 10° ESE visible
30 Jan ? 19:40:12 10° NNW 19:46:59 69° WSW 19:53:50 10° S visible
30 Jan ? 21:28:03 10° WNW 21:31:13 14° W 21:34:24 10° WSW visible
31 Jan ? 18:03:54 10° NNW 18:10:13 39° NE 18:16:38 10° ESE visible
31 Jan ? 19:49:17 10° NNW 19:55:53 52° WSW 20:02:31 10° S visible
01 Feb ? 18:12:47 10° NNW 18:19:24 50° ENE 18:26:05 10° SE visible
01 Feb ? 19:58:28 10° NW 20:04:44 39° W 20:11:01 10° SSW visible
02 Feb ? 18:21:42 10° NNW 18:28:31 64° ENE 18:35:22 10° SE visible
02 Feb ? 20:07:47 10° NW 20:13:30 29° W 20:19:15 10° SSW visible
03 Feb ? 18:30:39 10° NNW 18:37:34 83° ENE 18:44:28 10° SSE visible
03 Feb ? 20:17:15 10° NW 20:22:13 22° W 20:27:11 10° SW visible
04 Feb ? 18:39:39 10° NNW 18:46:32 76° WSW 18:53:25 10° SSE visible
04 Feb ? 20:27:04 10° NW 20:30:52 16° W 20:34:39 10° WSW visible
05 Feb ? 18:48:43 10° NNW 18:55:28 58° WSW 19:02:09 10° S visible
05 Feb ? 20:38:03 10° WNW 20:39:26 11° W 20:40:50 10° W visible
06 Feb ? 18:57:52 10° NNW 19:04:20 43° WSW 19:10:42 10° S visible
07 Feb ? 06:40:35 10° ESE 06:43:45 15° E 06:47:03 10° ENE visible
07 Feb ? 19:07:07 10° NW 19:13:06 32° W 19:19:00 10° SSW visible
